Weather History for KMHR - April, 2013

Change the Weather History Date:

Tuesday, April 2, 2013

  Actual Average Record
Temperature  
Mean Temperature 56 °F -  
Max Temperature 71 °F 65 °F 75 °F (2002)
Min Temperature 42 °F 41 °F 33 °F (2003)
Degree Days  
Heating Degree Days 8    
Growing Degree Days 6 (Base 50)    
Moisture  
Dew Point 48 °F    
Average Humidity 78    
Maximum Humidity 100    
Minimum Humidity 41    
Precipitation  
Precipitation 0.00 in - - ()
Sea Level Pressure  
Sea Level Pressure 30.13 in    
Wind  
Wind Speed 4 mph (WNW)    
Max Wind Speed 9 mph    
Max Gust Speed -    
Visibility 10 miles    
Events      
Averages and records for this station are not official NWS values.
T = Trace of Precipitation, MM = Missing Value Source: NWS Daily Summary

Daily Weather History Graph

Daily Weather History Graph

Search for Another Location

Airport or City:

Trip Planner

Search our weather history database for the weather conditions in past years. The results will help you decide how hot, cold, wet, or windy it might be!

Date:

Astronomy

Apr. 02, 2013 Rise Set
Actual Time 6:47 AM PDT 7:29 PM PDT
Civil Twilight 6:21 AM PDT 7:56 PM PDT
Nautical Twilight 5:49 AM PDT 8:28 PM PDT
Astronomical Twilight 5:17 AM PDT 9:01 PM PDT
Moon 1:36 AM PDT (4/2) 11:47 AM PDT (4/2)
Length of Visible Light 13h 35m
Length of Day
12h 41m
Waning Gibbous, 55% of the Moon is Illuminated
Apr 2
Waning Gibbous
Apr 2
Last Quarter
Apr 10
New
Apr 18
First Quarter
Apr 25
Full

Hourly Weather History & Observations

Time (PDT) Temp. Windchill Dew Point Humidity Pressure Visibility Wind Dir Wind Speed Gust Speed Precip Events Conditions
12:55 AM 50.0 °F - 48.2 °F 94% 30.12 in 10.0 mi SSW 6.9 mph - N/A   Clear
1:50 AM 48.2 °F - 48.2 °F 100% 30.14 in 10.0 mi SSW 3.5 mph - N/A   Clear
2:45 AM 46.4 °F 45.2 °F 46.4 °F 100% 30.14 in 10.0 mi East 3.5 mph - N/A   Clear
3:50 AM 46.4 °F 45.2 °F 46.4 °F 100% 30.14 in 10.0 mi East 3.5 mph - N/A   Clear
4:50 AM 42.8 °F 41.1 °F 42.8 °F 100% 30.14 in 10.0 mi East 3.5 mph - N/A   Clear
5:45 AM 44.6 °F - 44.6 °F 100% 30.14 in 10.0 mi Calm Calm - N/A   Clear
6:45 AM 42.8 °F - 42.8 °F 100% 30.14 in 10.0 mi Calm Calm - N/A   Scattered Clouds
7:45 AM 46.4 °F - 46.4 °F 100% 30.15 in 10.0 mi Calm Calm - N/A   Scattered Clouds
8:45 AM 53.6 °F - 48.2 °F 82% 30.16 in 10.0 mi Calm Calm - N/A   Scattered Clouds
9:45 AM 57.2 °F - 50.0 °F 77% 30.17 in 10.0 mi NE 3.5 mph - N/A   Mostly Cloudy
11:47 AM 60.8 °F - 50.0 °F 68% 30.16 in 10.0 mi West 6.9 mph - N/A   Mostly Cloudy
12:50 PM 64.4 °F - 50.0 °F 59% 30.15 in 10.0 mi NW 8.1 mph - N/A   Mostly Cloudy
1:46 PM 66.2 °F - 50.0 °F 56% 30.13 in 10.0 mi NW 5.8 mph - N/A   Mostly Cloudy
2:46 PM 68.0 °F - 50.0 °F 52% 30.10 in 10.0 mi West 6.9 mph - N/A   Mostly Cloudy
4:46 PM 71.6 °F - 48.2 °F 43% 30.08 in 10.0 mi WNW 9.2 mph - N/A   Scattered Clouds
5:45 PM 71.6 °F - 46.4 °F 41% - 10.0 mi North - - N/A   Scattered Clouds
6:45 PM 68.0 °F - 46.4 °F 46% 30.06 in 10.0 mi NNW 4.6 mph - N/A   Partly Cloudy
7:50 PM 62.6 °F - 50.0 °F 63% - 10.0 mi North - - N/A   Clear
8:50 PM 60.8 °F - 53.6 °F 77% 30.08 in 10.0 mi SW 6.9 mph - N/A   Clear
10:55 PM 53.6 °F - 50.0 °F 88% 30.11 in 10.0 mi Calm Calm - N/A   Clear
11:48 PM 51.8 °F - 48.2 °F 88% 30.11 in - East 4.6 mph - N/A   Clear